Theta_e
332 332 332 331 331 332 333 333 333 332 332 332 332 331 332 332 331 332 332 332 332 332 332 332 332 332 332 332 332 333 333 332 331 330 331 332 328 324 320 318 316 313 311 310 308 307 307 306 306 308 309 310 310 310 310 310 310 309 308 307 307 306 305 304 303 302 302 302 302 302 302 302 303 304 305 307 308 308 308 309 310 310 310 309 309
332 331 331 330 330 331 333 333 333 332 332 332 331 332 332 332 332 332 332 332 332 332 332 332 332 332 332 332 332 332 332 332 331 330 329 331 330 325 317 314 316 315 310 309 307 306 306 307 310 312 313 314 315 316 316 316 316 316 316 315 314 313 312 310 308 307 306 306 306 306 306 306 306 307 308 309 309 309 309 309 310 310 310 310 309
331 331 330 327 328 331 332 333 332 331 331 331 330 331 332 332 332 332 331 332 332 331 331 332 332 331 332 331 331 331 331 331 331 330 329 330 330 326 318 314 317 315 310 308 309 309 310 312 315 318 318 320 322 323 323 323 323 323 323 322 321 320 319 318 316 315 315 315 315 316 315 313 312 311 310 311 310 309 309 309 310 310 310 309 309
329 330 328 327 329 331 333 332 331 330 330 330 330 331 333 333 332 332 332 331 331 331 331 332 331 331 331 331 331 331 330 330 330 330 330 329 329 328 322 317 318 317 313 310 311 314 317 320 321 322 323 325 325 326 326 326 326 326 326 325 325 325 324 323 323 322 321 321 322 322 322 321 320 316 313 312 311 310 310 310 310 310 310 309 309
327 328 328 329 330 329 329 330 330 329 329 329 329 331 333 334 332 332 333 332 331 331 332 331 331 330 331 331 330 330 330 330 330 330 330 329 329 329 325 321 322 322 321 319 318 319 321 323 324 325 326 327 327 328 327 327 327 326 326 326 325 325 325 325 325 325 325 325 325 325 325 325 324 321 316 313 312 311 311 310 309 309 309 309 309
326 327 330 330 327 326 327 328 327 326 327 328 330 331 333 333 331 332 332 331 332 332 332 331 329 330 331 331 330 330 330 330 330 330 329 329 329 329 327 323 324 325 324 323 321 322 324 325 325 326 327 327 327 328 327 326 327 327 325 325 324 324 324 325 326 325 325 326 326 325 325 325 325 324 320 316 313 312 311 310 310 309 309 309 309
327 327 331 330 326 327 329 329 326 324 327 328 330 332 332 332 331 331 330 331 332 331 331 330 329 329 329 330 331 330 329 330 330 328 328 329 328 328 327 325 325 325 323 322 322 323 325 325 326 326 326 326 326 326 326 326 326 326 325 325 324 325 325 325 326 325 325 326 326 326 325 325 326 325 323 319 317 315 313 312 311 310 309 309 309
330 329 331 331 330 330 331 330 326 326 328 328 330 333 332 332 332 331 330 330 331 330 331 330 329 329 328 330 331 329 328 328 327 327 327 328 328 328 328 327 326 324 324 324 324 324 325 325 325 324 323 323 323 324 325 325 325 326 325 325 325 325 325 325 325 325 325 326 326 326 326 326 326 326 325 323 322 320 319 317 315 314 312 311 310
331 331 331 333 333 332 332 328 325 328 328 327 331 333 332 332 332 331 330 329 330 331 330 329 329 329 329 330 329 328 328 326 327 327 326 326 326 326 326 326 326 324 324 324 325 325 325 324 323 323 322 322 322 323 324 325 325 325 325 325 325 325 324 324 325 325 325 326 326 326 327 326 326 326 326 326 325 324 324 323 322 321 318 316 314
332 332 331 333 334 334 332 326 325 328 327 328 332 332 331 332 331 331 331 330 331 331 330 330 329 328 329 329 328 327 328 327 327 327 326 326 327 326 325 325 325 325 325 324 324 324 324 324 323 323 323 322 322 322 323 324 325 325 325 325 325 324 324 324 325 324 324 325 325 327 328 326 325 326 325 326 326 326 326 326 325 325 324 322 320
332 332 332 333 334 334 332 326 326 327 327 330 332 332 331 332 331 330 331 332 332 331 330 330 330 329 329 329 328 327 327 327 327 327 327 328 327 327 326 326 325 325 325 325 324 323 323 325 325 323 322 321 321 321 321 322 324 325 325 325 325 324 324 324 324 324 324 325 325 326 326 325 324 325 325 327 327 326 326 326 325 325 325 325 324
332 333 332 332 334 334 331 326 326 326 326 330 332 332 330 330 330 330 332 333 331 331 329 329 330 329 329 329 328 328 327 327 327 327 328 327 328 329 328 327 326 325 325 324 324 325 325 326 325 323 322 320 319 318 319 321 323 324 324 324 324 324 324 324 323 323 323 324 324 324 324 323 324 325 325 327 327 325 325 326 326 325 325 325 325
331 334 332 332 334 333 329 325 326 327 327 329 331 332 329 326 328 329 331 331 331 330 328 329 329 328 328 329 329 329 328 327 327 328 327 328 329 329 328 328 326 326 327 325 325 326 326 326 326 325 324 322 321 320 320 320 321 323 323 323 324 324 323 323 322 322 322 323 324 324 324 324 324 325 325 326 326 325 325 324 323 322 322 322 322
331 334 332 332 334 331 327 326 327 328 328 328 330 330 327 326 327 327 329 331 331 330 328 328 329 328 328 328 328 328 328 328 328 329 328 327 329 328 327 327 326 326 328 327 326 326 326 325 324 325 325 325 323 321 319 318 317 320 322 322 323 323 321 320 320 320 321 321 322 323 324 324 324 324 324 324 324 323 322 319 316 315 314 314 315
332 333 330 331 334 331 326 326 328 328 327 327 328 328 327 326 327 327 329 331 331 328 327 328 330 329 328 329 328 328 328 329 329 328 327 327 328 329 328 328 327 327 327 327 326 325 324 324 322 321 324 325 323 320 317 314 313 318 321 320 321 320 317 316 317 318 318 318 317 317 318 318 318 319 319 319 318 317 315 313 310 309 308 308 309
332 333 330 331 333 330 327 326 329 328 326 328 329 328 328 327 328 329 330 332 331 328 327 328 329 329 329 330 329 328 328 328 328 328 328 328 328 328 328 327 327 327 327 326 324 323 323 321 319 318 321 323 321 320 319 316 313 316 319 318 316 315 312 311 312 313 315 315 314 312 311 311 311 312 312 312 311 310 309 307 306 306 305 305 306
334 332 331 332 331 328 327 326 328 328 326 329 330 330 329 327 328 330 330 331 331 328 327 327 328 328 329 329 328 329 329 328 328 328 328 328 328 327 326 326 327 326 325 324 322 322 321 319 317 317 319 321 321 322 323 322 318 315 316 316 313 310 308 307 308 309 310 310 309 309 308 307 307 307 307 307 307 306 306 306 305 306 306 306 306
332 332 332 333 331 329 328 327 327 327 326 329 330 329 329 329 329 331 330 331 331 328 327 328 329 328 328 328 327 328 328 327 328 328 328 328 327 327 326 326 326 323 322 321 320 320 319 318 317 317 319 320 320 318 317 318 315 312 311 310 308 306 305 306 306 307 307 306 306 306 306 306 305 305 306 306 306 306 306 306 306 305 305 305 305
329 331 332 332 331 330 328 326 326 326 326 330 331 329 330 331 330 331 331 331 331 330 329 329 329 328 327 326 326 327 327 327 328 327 328 328 327 326 327 325 322 320 320 320 319 319 318 318 317 318 318 319 318 314 308 307 308 306 306 306 305 305 305 306 306 306 306 306 306 306 306 306 306 306 307 306 306 306 305 305 304 303 303 302 302
328 329 331 331 330 329 328 327 327 326 327 331 332 330 330 331 329 329 331 330 330 330 330 330 328 327 327 325 325 327 327 326 326 326 327 328 327 327 326 325 320 318 318 318 319 319 317 316 316 317 317 319 320 318 309 304 305 305 305 305 306 306 306 306 307 307 307 307 307 307 306 306 306 305 305 305 304 303 303 302 302 302 301 301 301
327 329 330 330 330 329 328 328 328 328 329 331 332 330 330 331 329 329 331 330 330 330 330 330 328 328 329 326 326 328 327 326 326 326 326 326 327 327 326 325 322 318 318 317 318 318 316 315 315 314 314 314 317 316 309 304 305 306 307 307 307 307 307 306 306 306 306 305 304 304 303 303 303 303 302 302 302 302 301 302 301 301 302 301 301
325 326 327 329 330 329 328 328 327 328 329 331 332 330 330 331 330 330 331 329 329 330 329 329 328 328 328 327 328 328 327 327 326 326 326 325 326 326 326 325 323 320 318 317 317 316 316 315 313 313 312 312 313 312 307 305 307 307 307 307 307 306 305 305 304 304 303 302 302 302 301 301 301 301 301 301 302 302 301 301 301 301 301 301 301
324 322 323 327 329 330 330 329 328 327 328 331 333 331 330 331 330 329 329 327 328 329 328 328 328 328 327 327 328 328 327 327 327 326 327 326 326 326 325 324 323 320 318 317 316 315 315 314 312 312 312 311 311 309 307 307 308 308 307 307 306 306 305 304 303 302 302 302 302 301 301 302 302 301 302 302 302 302 302 302 301 301 301 301 301
324 321 321 323 325 328 330 330 329 328 328 330 333 332 331 331 331 329 329 328 328 328 328 327 327 327 327 326 327 327 327 327 326 326 326 326 326 326 325 323 322 320 317 315 315 314 314 312 312 311 311 310 309 307 308 308 308 308 307 307 307 307 305 304 303 303 302 302 302 302 302 303 303 303 303 303 303 303 303 302 302 301 301 301 301
324 322 322 322 322 325 327 329 329 328 328 329 330 332 332 331 331 330 329 329 328 327 326 326 326 326 325 326 327 327 327 327 326 326 325 325 326 326 324 322 321 318 315 313 313 312 311 311 311 311 310 310 309 308 309 309 308 308 308 308 308 307 306 304 303 303 303 303 304 304 305 305 305 305 305 305 305 304 304 303 302 302 301 301 301
322 322 323 322 321 321 323 325 326 327 328 328 328 329 330 331 331 330 328 329 329 328 326 325 325 324 322 325 327 327 327 326 325 325 325 324 325 325 323 322 320 315 313 312 311 311 310 311 310 310 311 311 310 309 309 308 308 308 309 309 308 307 305 304 304 304 304 305 306 306 306 306 306 306 306 306 306 306 305 305 303 302 302 302 301
325 324 323 321 320 321 321 321 322 324 326 328 327 328 327 328 330 329 328 328 329 329 326 325 325 323 323 325 327 327 327 326 325 325 325 325 325 325 323 322 319 315 313 311 311 311 311 311 310 310 311 312 311 310 309 308 308 308 309 309 309 307 305 305 305 306 307 307 307 307 307 307 307 307 308 308 308 307 307 306 305 303 302 302 302
328 325 321 317 317 320 320 320 321 322 324 326 327 327 326 327 329 328 328 329 329 328 327 327 326 325 325 326 326 327 327 326 325 325 325 325 326 325 323 321 318 315 313 312 312 312 311 310 311 310 311 312 311 309 308 309 309 309 309 309 309 307 306 306 307 308 308 308 308 308 308 308 309 309 309 309 309 309 308 308 307 305 303 302 301
328 326 321 316 316 318 318 318 320 319 321 322 324 326 325 326 328 328 328 329 328 327 327 327 327 326 326 327 326 326 326 326 326 325 325 325 325 325 322 320 318 316 314 314 313 312 311 310 311 310 311 312 310 308 308 309 309 309 309 309 309 308 306 306 309 309 309 309 310 309 309 309 309 310 310 310 310 310 310 309 309 308 306 303 302
326 325 321 316 317 318 317 317 318 317 318 318 321 325 325 325 328 328 328 328 327 327 326 327 328 326 325 326 326 326 327 326 326 326 325 324 324 324 322 319 317 316 315 315 315 313 311 311 311 310 311 312 310 308 309 310 309 310 311 311 309 308 307 307 309 310 310 310 310 310 310 310 310 310 311 311 311 311 311 311 310 309 308 306 303
321 320 318 316 316 316 314 317 320 318 319 319 322 325 324 325 329 329 328 327 326 327 327 326 327 326 325 326 325 326 327 326 326 326 326 325 324 323 321 319 317 316 315 315 316 314 312 313 312 310 311 312 311 310 311 311 309 310 312 312 310 309 308 307 308 309 310 311 311 311 311 311 311 311 311 311 311 311 311 311 311 311 310 309 306
314 313 315 315 315 314 316 321 323 321 321 321 323 324 323 324 327 329 329 327 326 328 328 327 327 326 326 326 325 326 327 326 326 327 326 326 325 322 321 319 317 315 315 315 316 315 315 315 314 312 311 312 312 311 312 312 310 310 312 312 311 309 309 308 307 308 310 311 311 311 311 311 311 311 311 311 311 311 311 311 312 311 311 310 308
314 315 320 321 319 319 322 325 325 323 323 322 322 322 323 325 326 328 329 327 326 328 328 328 327 326 327 327 326 327 327 326 326 326 325 325 324 321 320 319 317 315 315 315 316 316 316 316 315 313 312 312 313 312 312 313 311 310 311 312 312 310 309 309 309 309 311 311 311 311 311 311 311 311 312 311 311 311 311 311 311 312 312 311 310
321 322 325 325 324 324 325 325 325 325 324 324 323 322 324 326 326 326 327 327 327 327 326 326 327 327 327 326 326 326 326 326 326 324 323 323 322 320 318 318 316 315 315 316 316 317 317 317 317 315 313 313 313 313 313 313 313 311 311 312 312 312 311 311 311 312 313 313 312 312 312 312 312 312 312 312 312 312 311 311 311 311 312 311 311
324 324 326 325 324 324 324 324 324 324 323 324 325 324 323 325 327 327 327 326 326 325 326 325 325 327 328 327 326 326 326 326 325 323 322 322 320 318 318 317 315 314 316 316 316 317 317 317 317 316 315 314 314 314 314 313 314 313 312 312 313 314 314 313 313 314 314 313 313 313 312 313 312 312 312 312 312 312 312 312 311 311 311 311 311
324 325 325 324 324 324 324 323 323 324 324 324 325 325 324 326 327 327 326 326 325 324 325 324 323 326 327 326 326 326 325 326 325 323 321 321 319 317 317 317 315 314 315 316 316 317 317 317 317 316 316 316 315 315 315 314 314 315 314 313 313 314 314 314 314 314 313 313 313 313 313 313 313 313 313 312 312 312 312 312 312 312 311 311 311
324 325 323 323 323 323 323 323 323 323 324 324 324 325 325 325 326 326 325 325 324 323 323 322 322 324 325 326 327 327 326 327 326 323 321 320 319 317 317 317 316 315 315 316 316 316 317 316 316 315 316 316 316 315 315 314 314 315 315 315 314 314 314 314 313 313 313 313 313 313 313 313 313 313 313 313 313 313 313 313 312 312 312 312 312
325 324 323 323 323 323 323 322 322 322 322 322 323 324 323 324 324 324 323 323 323 323 322 321 321 322 323 324 325 327 327 327 326 322 321 320 319 317 317 317 317 316 316 316 316 316 316 316 316 315 315 316 316 316 316 315 315 315 315 315 315 314 314 314 314 313 313 313 313 313 313 313 313 313 313 313 313 313 313 313 313 313 312 312 312
325 324 323 322 322 323 323 322 321 320 321 321 321 322 323 323 323 323 322 322 322 322 321 320 320 321 321 322 322 324 325 326 325 323 321 320 319 318 318 317 317 317 317 317 317 317 317 317 317 316 316 316 316 316 316 315 315 315 315 315 315 314 314 314 314 314 314 314 314 314 314 313 313 314 314 313 313 313 313 313 313 313 312 312 312
324 323 323 322 322 323 323 322 320 320 320 320 320 321 321 321 322 322 322 322 321 321 321 320 320 320 320 321 321 321 322 323 323 323 322 321 320 319 318 318 317 317 318 318 318 317 317 317 317 317 317 317 316 316 316 315 315 315 315 314 314 314 314 314 314 315 315 315 315 314 314 314 314 314 314 314 314 314 314 314 313 313 313 312 311
323 322 322 322 322 322 322 321 320 319 319 319 319 320 320 319 320 321 322 322 321 321 321 320 320 320 320 321 321 320 321 321 321 322 322 322 322 321 320 320 319 319 319 319 318 318 318 318 318 318 318 318 317 316 316 315 315 315 315 315 314 314 315 315 315 315 316 316 315 315 314 314 314 314 314 314 314 314 314 314 314 314 313 312 311
322 322 321 320 320 320 319 320 320 319 319 318 318 319 319 319 318 319 320 321 321 320 321 320 321 321 320 321 320 320 320 319 318 319 319 320 321 322 321 321 321 320 320 319 319 318 318 318 318 318 318 318 317 317 316 316 316 316 316 316 315 315 315 315 315 315 316 316 316 315 314 314 313 313 314 314 314 314 313 313 313 313 313 312 311
321 320 319 318 318 317 318 320 319 318 318 318 317 317 318 318 318 318 319 319 319 319 319 320 321 321 320 320 320 319 319 318 317 316 315 316 317 319 320 321 321 320 320 319 319 319 318 318 318 318 318 318 317 317 316 317 317 316 316 316 316 316 316 316 316 316 316 316 316 315 315 314 313 313 313 313 312 312 312 312 312 312 312 312 311
321 319 318 318 318 318 319 319 316 313 312 313 314 314 315 316 317 318 318 319 319 318 318 318 319 320 319 319 319 319 317 316 315 315 314 314 314 316 318 319 319 319 319 319 319 320 319 319 318 318 318 317 317 317 317 317 317 317 317 317 317 317 317 316 316 316 316 315 315 315 315 315 314 314 314 313 312 312 312 311 311 311 311 311 310
320 320 320 319 320 320 318 315 311 309 308 309 309 310 312 313 314 315 317 318 318 318 317 317 318 318 318 318 319 319 318 315 314 315 316 315 314 314 315 316 317 316 315 316 318 320 320 320 319 319 318 318 317 317 317 317 317 317 318 318 317 317 318 318 317 317 316 316 316 315 315 315 315 314 314 314 313 312 312 311 311 311 311 310 310
316 319 320 320 320 318 315 312 311 311 311 310 309 309 310 311 311 312 316 318 317 317 318 318 318 319 319 319 319 319 319 318 315 316 317 318 318 316 314 314 313 313 312 312 314 316 316 317 318 319 319 319 319 319 319 319 318 318 319 320 319 318 319 319 318 318 319 318 317 317 316 316 316 315 314 314 313 312 311 311 310 310 310 309 309
311 314 315 316 316 315 313 312 312 313 312 312 312 311 311 312 310 310 315 318 317 317 319 318 318 319 320 320 320 319 320 320 318 317 317 319 320 320 319 318 316 315 315 313 312 312 312 312 313 315 315 316 318 319 319 320 320 320 320 320 320 319 320 320 319 319 319 318 317 317 317 316 316 315 314 313 312 312 311 310 310 309 309 309 308
312 312 312 313 313 313 313 313 313 313 313 313 313 313 313 313 312 313 315 317 318 319 319 318 317 318 318 318 319 319 319 320 319 318 317 316 317 317 318 319 319 319 318 317 316 315 313 312 311 312 312 313 314 315 317 318 321 321 320 319 320 320 319 320 319 319 319 318 317 316 316 316 316 315 315 314 312 311 311 310 309 308 308 308 308
315 315 314 313 312 313 313 314 314 314 313 313 313 313 313 313 313 315 317 318 319 320 320 318 318 319 318 316 316 318 319 318 317 317 316 315 314 314 314 317 319 320 319 319 319 318 317 316 314 313 313 313 313 314 314 316 318 319 319 319 319 319 319 319 318 318 318 318 317 316 315 315 315 314 314 313 312 311 310 310 308 308 308 307 307
317 316 315 314 313 313 313 315 315 314 313 314 314 313 314 314 314 315 317 318 319 320 319 318 318 319 318 316 316 317 317 316 316 316 315 315 314 314 314 315 316 318 319 319 319 318 319 318 316 315 314 314 314 314 314 315 315 315 316 316 316 318 319 318 316 317 318 317 316 316 315 315 314 314 313 312 311 310 309 308 308 307 306 306 305
316 316 315 315 314 314 315 316 316 316 316 316 316 316 316 316 315 316 316 316 317 318 318 317 318 318 318 317 317 318 318 317 317 317 317 317 317 317 316 316 316 317 318 319 317 317 318 317 317 316 316 315 315 315 315 315 315 315 315 315 315 316 318 317 316 315 316 317 316 315 315 315 314 313 313 311 310 310 309 308 307 307 305 304 304
Wind_Speed
12 12 11 11 10 10 8 7 7 7 8 8 7 8 9 8 7 9 9 9 11 10 10 12 11 8 8 8 7 8 8 9 9 7 6 6 3 3 4 4 3 5 7 7 8 7 7 8 10 12 13 13 14 13 13 13 13 12 12 11 11 12 11 11 11 10 10 10 10 10 10 10 10 10 10 10 11 11 11 12 13 13 14 14 14
13 12 12 12 12 11 10 9 9 8 8 8 9 8 8 9 9 9 9 9 10 11 11 12 12 9 8 8 7 7 8 8 8 6 5 5 4 3 6 6 5 7 8 8 9 9 10 11 13 14 15 15 15 14 14 14 14 14 14 14 14 14 14 14 13 13 13 12 12 12 12 11 11 10 10 10 11 11 11 12 13 13 14 14 15
14 13 13 14 12 11 10 9 9 9 9 9 9 9 8 8 8 8 9 11 10 11 12 11 12 10 8 8 8 7 8 7 6 7 5 5 4 3 7 9 7 8 10 11 12 13 13 14 14 14 14 13 13 13 13 13 13 13 13 14 13 13 14 14 14 14 13 13 13 13 13 13 12 12 11 11 11 11 12 12 13 13 14 14 15
16 14 13 13 12 10 9 9 9 9 9 9 10 9 8 7 9 9 9 12 12 10 12 11 11 13 10 9 9 7 8 8 8 8 7 5 4 6 8 11 9 9 12 14 15 14 14 13 12 11 10 9 9 9 9 10 10 11 11 11 11 11 12 12 12 12 12 12 12 13 13 13 13 13 12 12 12 12 12 12 13 13 14 14 14
15 13 13 12 12 11 10 10 9 9 9 10 10 9 9 8 10 9 7 10 11 8 11 11 11 13 10 9 10 8 7 8 8 8 8 7 9 9 8 11 10 8 9 11 12 11 11 10 9 7 7 6 6 6 6 7 8 8 9 9 8 9 9 9 9 9 9 10 10 11 11 12 13 13 13 12 12 12 12 13 13 13 14 14 14
13 12 12 11 12 11 10 9 9 9 9 11 10 9 8 8 9 10 9 11 11 9 9 10 10 12 11 8 8 8 6 6 8 7 7 8 11 11 8 9 9 7 6 7 10 9 9 9 7 6 5 5 5 5 5 5 5 6 7 7 7 7 7 6 7 7 7 7 8 9 9 10 12 13 12 13 12 12 12 13 13 13 13 13 13
12 12 12 11 11 10 9 9 9 9 9 10 10 8 8 9 10 11 11 11 12 10 7 8 10 10 11 8 8 11 9 7 8 7 6 6 8 9 8 8 8 8 7 7 8 8 8 8 7 6 5 5 5 4 4 5 5 5 5 6 6 6 6 6 6 6 7 7 8 8 9 8 9 11 11 12 12 12 13 13 13 13 12 12 12
12 11 11 10 10 10 10 9 9 9 10 11 9 8 9 9 10 10 11 11 11 10 8 8 9 9 10 8 7 11 10 8 9 6 6 7 7 8 9 9 7 7 7 6 7 7 6 6 6 5 5 5 5 5 5 4 4 4 5 6 6 6 6 6 5 6 6 6 6 7 8 8 8 8 9 10 11 12 12 12 12 12 11 11 11
12 11 11 10 9 10 10 10 10 9 10 11 9 9 10 9 9 8 10 12 9 8 9 8 8 8 10 8 6 7 8 9 9 7 6 8 9 9 10 9 7 7 6 5 6 6 5 5 5 5 5 5 6 5 5 4 4 4 5 5 5 6 6 5 5 5 5 4 4 5 6 6 6 6 7 8 9 10 10 11 11 11 11 10 10
12 11 11 10 8 9 9 10 9 9 10 10 9 9 10 10 10 9 8 9 8 8 7 7 7 8 8 7 5 6 7 9 10 9 7 8 8 9 10 10 8 7 6 6 7 6 5 4 4 5 5 5 5 5 5 4 4 4 5 5 5 6 6 5 5 5 5 4 3 3 4 5 4 4 6 7 7 8 8 8 9 9 9 9 9
12 11 11 10 9 9 10 10 9 9 10 10 9 10 11 11 11 11 9 8 8 9 8 7 7 8 8 7 6 6 8 9 9 9 9 8 7 8 9 8 7 7 7 7 7 6 4 4 5 6 6 5 5 5 6 6 5 5 6 6 6 7 7 6 6 6 6 5 4 2 3 4 3 3 4 5 5 6 7 7 8 9 9 9 9
11 10 11 12 10 10 11 11 10 10 11 11 10 10 12 13 11 10 11 10 9 9 10 10 9 9 8 8 8 8 9 10 9 9 8 7 7 6 7 6 6 7 8 8 6 6 6 6 6 6 6 6 6 7 7 7 7 7 8 8 8 9 9 9 9 8 8 7 7 5 3 3 2 3 3 2 3 4 6 6 8 8 8 9 9
11 10 11 12 11 11 12 11 10 11 11 11 12 11 11 12 12 11 11 10 10 10 10 10 10 11 10 9 9 9 9 9 8 7 7 7 6 5 6 5 5 7 8 8 6 5 6 7 7 6 5 6 7 8 9 8 8 8 9 10 10 11 11 11 11 10 10 10 10 9 9 7 6 6 5 4 4 5 6 7 8 10 9 9 9
11 11 12 12 10 12 12 12 11 12 12 12 13 12 11 12 12 12 11 10 11 12 11 11 11 13 13 11 10 8 8 8 7 6 6 7 7 5 5 5 5 7 8 8 8 8 7 7 8 8 6 6 6 8 9 8 8 8 9 10 11 12 12 12 12 12 12 13 13 13 12 12 11 10 9 9 10 11 11 11 12 12 12 12 11
11 12 13 12 11 12 13 13 12 13 14 13 13 12 12 13 12 12 12 11 11 12 12 12 11 12 13 12 11 10 9 7 7 7 6 7 7 5 5 6 7 8 9 8 8 8 7 7 8 9 9 8 6 7 8 8 8 8 8 10 11 11 11 11 11 12 13 14 15 15 14 14 13 13 12 13 13 13 13 12 12 12 12 12 11
10 11 11 12 13 14 13 14 13 14 14 12 12 13 13 13 12 12 13 12 12 13 12 11 12 13 11 10 10 9 9 8 8 8 7 7 7 5 6 8 8 8 8 8 8 8 7 8 9 9 9 9 7 7 7 8 8 7 7 9 9 9 9 9 9 10 11 12 13 14 14 13 13 12 12 12 12 12 11 11 11 11 11 12 11
11 11 10 11 14 15 14 14 14 15 15 12 12 13 12 13 13 12 13 13 13 14 13 11 12 12 10 10 9 7 8 10 11 10 8 7 7 5 7 9 9 8 8 8 8 7 7 8 9 9 9 8 7 7 6 6 7 6 6 7 8 7 7 8 8 9 10 11 11 11 12 12 11 11 11 11 11 11 11 11 11 12 11 12 11
12 11 11 11 12 14 13 13 14 16 16 13 12 13 12 12 13 13 13 12 12 13 14 12 11 11 11 10 8 5 10 12 11 11 10 8 7 6 7 8 8 8 8 9 9 8 8 8 9 8 8 8 6 5 5 5 6 5 5 6 6 6 7 8 9 10 10 11 11 11 11 11 11 12 11 11 11 11 11 11 11 12 12 12 12
11 10 11 11 12 12 11 12 14 15 16 13 11 12 12 12 13 14 12 12 12 12 13 13 11 11 11 10 7 5 12 13 11 13 13 9 9 8 8 8 9 9 8 9 9 9 10 9 8 7 7 7 6 4 5 6 6 6 6 7 7 8 9 10 10 10 10 11 11 11 11 11 11 11 12 11 12 11 12 12 12 12 12 12 12
10 10 10 11 12 11 11 12 13 14 15 12 11 12 12 13 15 14 12 12 12 12 12 11 11 10 9 9 7 6 12 12 9 12 13 12 12 10 8 9 11 11 10 9 8 9 10 9 7 7 7 8 7 6 6 7 7 7 8 9 9 9 9 10 10 9 10 10 11 11 11 12 12 12 12 12 12 12 13 13 13 13 13 13 13
11 10 10 10 10 11 11 12 12 13 14 12 11 12 12 13 14 13 12 13 12 12 13 11 11 11 9 9 7 6 11 10 8 11 12 13 14 11 10 9 9 9 8 8 8 9 10 9 7 6 7 8 8 7 6 7 8 9 10 10 9 9 9 10 9 9 10 11 11 12 12 13 13 13 13 13 13 13 13 13 13 13 13 13 13
11 11 11 11 10 10 11 11 11 12 13 11 10 13 13 13 14 14 15 15 13 13 14 12 12 11 9 9 8 8 11 9 8 11 11 11 12 12 11 10 9 8 7 7 7 7 8 8 8 7 7 9 8 7 7 8 9 9 10 10 9 10 10 10 10 10 10 11 12 13 13 14 14 14 14 14 14 14 14 14 14 13 13 13 13
12 12 12 11 10 10 9 10 11 12 13 12 10 12 14 13 15 17 16 15 15 15 15 14 13 12 10 10 9 9 10 9 9 10 10 10 11 11 11 10 9 8 8 8 7 7 7 7 8 8 9 9 7 7 8 9 9 9 10 11 11 11 11 10 10 11 11 12 13 14 14 14 14 14 14 13 13 13 13 13 13 13 13 13 12
13 13 13 12 11 10 9 10 10 10 12 13 12 11 13 13 14 17 15 14 15 15 15 15 14 14 12 11 10 9 8 9 10 10 11 13 12 10 11 10 9 9 9 10 8 7 7 7 8 8 9 8 7 8 9 9 9 10 11 11 11 10 10 10 11 11 12 12 13 13 13 13 12 12 12 12 12 12 12 13 13 13 13 13 13
14 15 14 13 12 11 10 10 9 10 10 12 13 11 12 13 13 15 14 14 14 13 14 15 15 15 14 13 10 8 8 8 8 9 11 14 12 11 12 11 10 10 10 10 10 9 8 8 9 9 9 8 7 8 9 8 9 10 10 10 9 9 10 10 10 11 11 11 11 11 11 10 11 11 11 11 12 13 13 13 13 13 13 13 13
16 16 14 14 13 13 12 11 10 10 10 11 13 12 12 13 13 14 14 14 14 13 12 12 14 16 15 14 11 8 9 9 8 10 12 13 12 11 12 11 10 10 10 11 11 10 10 9 9 9 10 9 8 8 8 8 8 9 8 8 8 8 9 10 10 9 9 9 9 9 9 9 9 10 11 11 12 13 13 14 14 14 13 13 13
15 15 15 16 15 14 13 12 10 10 10 10 11 12 12 12 13 14 13 13 13 13 12 12 14 16 16 16 12 9 10 10 9 11 13 12 11 11 13 12 11 11 11 11 11 10 11 10 10 9 10 10 8 7 8 8 7 7 6 6 7 8 8 9 9 8 8 8 7 7 8 8 9 10 10 11 12 12 13 14 14 14 13 13 13
13 12 13 16 16 15 13 12 11 10 10 10 10 11 12 12 12 13 13 12 12 13 13 12 13 13 14 15 13 11 11 10 9 10 13 12 10 12 14 12 11 11 11 11 11 11 11 11 10 10 10 10 9 7 8 8 6 6 5 5 6 6 7 8 7 7 6 6 6 6 7 8 9 10 11 12 12 13 14 14 15 15 15 14 13
13 11 12 14 15 15 14 13 11 10 10 10 10 10 11 12 11 11 13 12 13 13 12 11 11 12 13 13 13 12 11 11 10 10 11 11 11 13 14 11 10 11 11 11 11 11 12 11 11 10 10 10 9 7 7 7 6 5 4 5 5 5 6 6 6 5 5 5 4 5 6 7 8 9 11 12 13 14 14 15 16 17 17 16 15
13 11 13 14 14 15 14 13 11 10 11 11 11 10 11 12 10 10 12 12 12 12 11 12 13 13 13 13 12 13 12 12 11 9 10 11 12 13 12 10 10 10 11 11 11 11 12 11 10 11 12 11 9 7 7 7 4 5 5 4 4 6 6 5 4 3 2 2 2 3 4 6 7 9 10 11 12 14 15 16 17 18 18 18 18
15 15 16 16 15 15 15 13 11 12 13 12 11 11 10 11 10 10 11 11 11 10 9 11 11 11 12 12 13 13 12 13 12 10 10 10 12 13 12 10 10 9 11 11 11 11 11 10 10 11 12 12 9 8 10 8 4 6 9 8 6 5 7 7 6 4 2 1 1 2 4 5 7 8 9 10 12 13 14 16 17 18 19 19 19
18 17 16 14 15 16 14 12 12 13 13 12 12 11 10 10 10 10 10 11 10 9 9 9 9 10 11 12 14 14 12 13 13 13 13 12 11 13 11 10 9 10 10 11 12 12 10 9 9 11 12 12 11 10 11 10 7 6 10 10 7 5 6 8 8 7 5 3 2 3 4 6 7 9 10 11 12 13 14 16 17 18 19 19 20
16 15 12 12 13 13 11 10 10 11 11 11 12 12 10 10 10 10 11 11 10 9 10 10 9 10 11 12 14 13 12 14 13 13 14 12 12 13 11 9 10 12 12 12 13 13 11 10 9 10 12 12 12 11 12 12 9 7 10 11 8 6 6 7 7 6 5 5 4 5 6 8 9 10 12 13 14 14 15 16 17 18 19 19 20
14 13 12 11 11 10 10 9 9 9 10 9 10 11 11 10 10 10 11 11 10 10 10 10 10 10 10 12 14 12 12 14 14 14 13 12 12 12 11 9 10 14 14 12 16 15 12 11 10 10 12 12 12 13 13 13 10 7 9 12 10 7 6 6 6 5 5 6 6 7 8 9 11 12 13 14 15 16 17 17 18 18 19 20 20
15 13 12 12 11 10 10 9 8 8 9 9 9 10 10 10 10 11 11 11 11 10 10 10 10 10 11 12 13 13 13 12 12 14 13 13 12 11 11 10 11 15 14 10 15 17 13 12 12 11 12 12 12 13 14 14 12 9 9 13 12 11 9 7 8 10 10 9 8 9 10 11 13 14 15 16 16 17 18 18 19 19 20 20 21
16 14 14 12 12 11 10 8 7 7 8 9 9 9 9 10 10 10 10 10 10 10 9 9 9 10 12 13 12 13 15 13 13 15 14 12 12 12 12 11 11 14 11 6 11 16 15 13 12 12 14 13 12 13 14 14 14 12 11 12 13 13 12 10 10 13 14 13 12 12 13 13 14 15 17 18 18 19 19 20 20 20 21 21 21
15 15 14 13 12 11 10 8 7 6 7 7 7 7 8 9 8 8 8 8 8 9 8 7 8 9 11 13 13 13 14 14 15 16 15 13 12 12 13 12 11 13 11 7 8 11 12 13 13 12 13 13 12 12 14 14 14 13 12 12 12 13 12 12 13 16 18 18 17 16 15 15 16 17 18 19 19 20 20 21 22 22 22 22 22
14 14 14 13 11 11 10 9 7 6 6 6 6 6 6 6 6 7 7 7 7 8 8 8 9 8 8 10 12 13 15 16 16 17 15 14 13 12 13 13 12 13 13 10 10 10 10 11 13 12 12 12 12 12 13 13 14 13 12 12 12 12 12 12 14 18 20 21 19 18 17 16 17 18 19 20 20 20 21 22 22 23 23 22 22
14 14 13 12 11 10 10 9 7 6 6 6 6 6 6 6 7 7 7 7 8 9 10 9 9 8 8 8 9 11 13 14 16 17 15 14 14 13 13 14 14 15 15 13 12 12 11 11 12 12 12 13 13 13 12 13 14 13 13 13 12 13 14 14 15 17 20 23 22 19 17 18 19 19 20 20 21 20 20 22 23 23 23 23 22
14 13 12 12 11 10 10 10 8 7 7 8 9 9 8 7 7 7 7 7 8 9 10 9 9 9 9 8 7 8 10 12 14 15 15 14 14 13 13 14 14 13 14 13 13 13 13 13 13 12 12 13 14 14 13 13 15 15 14 15 14 14 15 16 18 17 17 21 24 22 20 20 20 20 20 20 20 20 20 22 24 24 23 22 22
13 12 12 11 10 9 10 9 8 9 11 13 14 13 11 10 9 7 8 8 8 9 10 10 10 10 9 8 9 10 11 13 14 15 16 16 15 14 13 14 13 12 11 12 13 13 13 14 14 14 14 14 15 15 15 15 16 16 15 16 16 16 15 16 17 17 16 17 21 22 23 24 23 21 21 20 20 21 21 22 23 23 23 22 22
12 12 11 10 10 9 9 9 10 13 16 16 15 15 15 14 12 9 8 8 8 9 10 11 10 10 10 9 11 13 14 14 15 15 16 17 17 17 15 15 15 14 12 12 13 14 14 14 15 15 15 16 16 16 16 17 16 15 15 16 17 17 17 17 17 18 17 18 19 18 19 23 24 23 24 24 24 24 24 25 24 22 21 21 21
12 13 12 11 10 9 9 10 13 16 17 17 17 17 17 16 15 12 8 7 8 8 10 11 10 10 10 9 11 14 15 14 14 14 14 15 16 17 18 18 18 17 16 15 15 15 15 15 15 15 15 16 16 16 16 16 17 17 17 18 18 18 18 18 19 19 18 19 22 20 19 20 24 25 25 23 23 24 26 28 28 24 21 22 22
13 12 11 11 10 11 12 13 13 12 14 16 16 17 17 17 16 14 9 6 7 7 7 9 9 9 9 9 9 11 13 15 16 15 15 15 15 16 18 19 20 19 18 18 17 15 15 15 16 16 16 16 15 16 16 16 16 17 18 19 19 19 20 21 21 21 20 21 22 22 20 19 21 24 24 21 20 23 26 29 31 28 24 22 22
17 14 13 13 12 12 13 12 10 9 10 12 12 13 15 15 15 14 9 6 7 6 6 7 8 8 9 9 9 7 8 12 15 14 14 14 15 17 18 19 20 20 20 20 20 18 16 15 15 15 16 15 15 16 16 16 18 18 18 19 20 20 21 22 22 21 21 23 23 23 23 21 19 23 27 25 21 22 27 31 32 30 26 24 23
20 19 17 16 13 10 10 11 10 9 9 9 8 9 11 11 12 13 10 7 7 7 6 7 7 8 8 8 8 8 7 10 11 11 10 10 12 15 18 19 20 20 21 21 21 21 20 19 18 16 15 14 14 15 15 15 17 18 18 17 18 19 19 21 22 21 22 24 24 23 23 22 19 22 26 25 20 21 27 31 32 30 26 24 23
19 18 17 15 11 9 10 12 12 11 10 9 8 8 8 8 8 10 9 7 7 7 6 6 7 7 7 7 6 6 7 8 10 11 12 11 10 11 12 15 17 18 19 20 21 22 23 22 22 22 21 19 17 17 17 16 16 18 19 19 19 19 20 21 22 23 24 27 28 27 27 24 21 21 22 23 21 20 24 30 31 29 26 25 24
16 15 13 11 11 12 13 13 12 11 11 10 9 8 8 7 7 7 7 6 6 7 7 8 7 6 7 8 7 6 9 11 11 13 14 14 14 13 12 12 14 15 16 18 20 21 22 22 23 24 25 25 24 23 22 20 19 19 20 20 20 21 23 23 23 23 23 24 26 29 29 24 21 20 21 21 20 19 22 29 30 27 26 27 26
12 12 11 10 12 15 15 14 12 12 11 11 10 9 8 8 8 6 5 6 7 7 8 8 7 8 10 11 10 11 13 14 14 15 16 15 16 17 17 16 15 16 16 16 17 20 21 23 24 25 26 27 27 27 26 26 25 24 23 22 22 22 24 25 25 24 24 24 26 28 28 25 22 21 21 20 19 17 20 26 28 26 26 28 27
13 14 15 15 15 17 17 15 13 12 12 11 11 10 10 9 10 8 5 4 6 6 6 6 6 8 11 11 12 13 14 14 15 16 16 16 17 18 19 20 19 19 19 18 20 22 23 24 26 27 27 27 27 28 29 29 30 30 30 31 29 27 28 29 27 26 25 25 25 25 24 26 26 22 17 17 17 17 19 23 26 26 26 25 25
14 15 16 16 16 16 16 14 13 13 12 11 11 11 11 11 11 11 8 4 4 5 5 4 4 6 11 13 13 14 15 16 17 18 18 19 20 20 21 23 23 23 23 24 26 27 27 27 28 28 29 30 31 32 33 33 33 34 34 36 34 32 33 34 32 30 28 24 23 23 23 26 27 21 17 18 17 15 16 21 24 25 25 24 25
Wind_Direction
163 164 160 164 162 156 158 156 159 167 168 171 176 174 181 195 188 191 196 188 187 170 162 169 162 160 154 143 141 139 136 140 148 151 137 138 137 71 29 4 33 93 99 110 123 116 104 97 94 92 88 84 81 79 78 75 72 68 67 65 63 61 60 59 59 58 57 57 55 54 54 54 55 54 51 49 46 44 43 42 42 42 40 40 40
163 164 165 166 164 161 162 162 166 170 170 170 171 176 180 181 182 185 185 191 190 173 177 176 157 155 154 146 147 142 136 142 152 160 160 154 148 80 47 42 67 101 102 105 109 102 99 100 98 94 89 84 80 78 77 75 73 69 66 63 63 63 64 64 63 63 62 61 60 58 56 54 53 52 49 49 48 46 46 45 44 44 43 42 40
163 164 169 168 165 164 164 165 174 172 169 171 168 169 175 173 169 176 188 193 189 179 185 181 156 151 153 147 148 149 143 146 161 159 157 158 142 90 67 64 75 98 99 98 99 97 98 98 94 89 84 80 76 72 71 71 72 72 69 65 64 64 66 67 67 66 65 63 62 59 55 52 48 46 44 42 43 44 45 45 43 43 44 44 43
167 165 169 169 166 165 167 170 177 178 172 170 170 167 163 165 166 177 199 190 182 184 185 180 161 153 157 158 153 159 159 161 172 153 141 149 119 82 70 69 77 97 99 99 101 99 97 91 84 81 76 72 66 59 59 62 65 68 68 65 63 63 63 63 62 62 63 62 59 57 55 52 48 45 44 41 41 42 42 43 42 42 43 45 46
171 167 168 169 170 170 173 174 179 182 176 172 172 165 158 168 171 175 193 172 166 188 184 178 167 153 156 167 156 158 170 161 155 144 146 154 129 106 88 82 86 91 93 102 106 102 98 93 88 83 78 75 69 55 46 45 48 50 51 49 48 49 50 51 51 49 51 53 51 50 50 51 49 46 46 46 44 44 45 45 43 43 43 44 46
171 167 166 172 174 173 175 176 181 179 175 174 167 158 158 165 164 174 190 164 157 190 188 175 172 158 154 163 155 159 173 151 139 144 156 150 131 125 115 104 108 105 95 107 113 113 109 105 103 95 86 80 72 59 42 33 35 36 37 35 34 37 38 41 46 42 39 41 41 41 41 46 50 47 47 48 47 47 49 49 48 47 46 45 45
174 168 166 174 175 173 177 179 181 173 173 175 164 161 165 167 173 180 185 169 165 183 182 170 174 168 164 170 170 171 181 171 157 160 160 143 126 134 135 121 122 121 116 116 115 113 109 105 101 91 80 68 62 56 43 36 35 32 29 25 24 26 26 26 32 33 27 27 29 31 31 34 46 52 50 51 50 50 50 51 52 51 50 48 45
177 174 169 171 174 173 177 181 179 171 177 176 161 168 173 178 192 184 178 180 177 174 174 182 182 172 171 185 189 180 188 187 170 169 179 164 136 143 152 144 138 133 131 125 118 113 104 97 91 82 70 55 50 49 43 37 33 30 22 14 11 11 10 6 6 10 9 11 17 23 26 25 37 52 55 54 52 52 51 50 50 49 49 48 45
180 181 173 168 174 176 180 185 178 172 182 173 158 178 185 182 192 182 174 178 174 169 174 182 183 172 171 185 188 173 181 178 162 161 180 167 142 144 157 154 148 144 141 133 122 115 101 91 83 69 53 37 29 33 37 37 28 22 22 16 12 9 6 4 359 359 359 356 1 13 11 8 22 41 52 54 49 48 48 47 46 43 42 41 42
184 185 177 171 173 176 183 186 178 176 182 171 161 183 190 182 187 181 164 159 161 166 170 169 169 167 170 179 174 158 159 161 158 154 152 147 139 142 149 148 145 142 138 131 120 110 97 85 72 49 37 32 29 34 40 46 44 37 40 35 28 24 19 20 17 16 17 9 8 4 330 328 356 26 39 39 33 27 26 31 32 31 33 31 32
188 187 181 175 174 181 186 184 182 180 178 171 167 185 190 186 191 181 160 157 165 164 165 164 156 155 159 159 156 155 153 151 151 149 142 136 135 136 140 140 140 139 134 127 122 117 99 71 67 56 48 47 43 49 56 57 58 55 52 46 43 42 37 39 40 36 32 20 11 344 300 315 345 28 38 25 13 8 6 16 18 14 18 22 27
189 191 190 178 173 188 189 186 187 181 180 174 170 193 198 189 191 181 165 165 165 162 166 165 155 151 148 138 134 139 149 148 143 145 141 130 129 134 137 136 137 135 124 115 119 118 102 85 77 63 54 62 65 66 67 65 60 54 52 49 50 55 53 54 55 49 42 35 32 37 38 32 36 57 64 24 347 357 2 12 18 18 19 19 23
191 192 196 179 180 198 191 188 189 180 185 179 174 196 200 188 189 184 176 172 163 165 170 167 161 156 149 142 135 130 141 146 139 139 137 129 132 142 142 140 137 130 116 108 111 104 91 90 90 79 56 58 73 74 67 64 60 54 57 60 60 64 63 59 58 55 53 53 54 60 66 70 69 65 67 56 30 33 39 42 44 47 46 39 35
192 191 197 183 192 208 192 188 191 182 187 186 183 194 193 188 191 187 182 175 168 172 173 167 161 157 151 148 143 134 133 138 137 142 144 134 131 137 137 128 117 110 102 96 98 99 99 106 116 116 91 64 66 74 71 65 60 58 63 71 71 68 65 63 62 61 62 63 64 70 75 75 74 71 70 69 65 66 67 64 59 57 55 50 46
196 199 202 188 196 212 201 192 191 188 190 191 191 193 191 189 191 187 179 172 174 177 172 164 160 160 155 149 149 142 135 140 143 144 141 122 116 125 121 112 108 101 101 101 99 103 109 117 128 127 111 97 87 81 80 74 67 66 69 74 76 72 67 66 66 66 67 68 68 71 75 76 77 76 76 76 73 70 66 60 55 52 50 47 45
201 207 202 194 199 212 212 198 192 193 190 191 193 192 194 191 187 185 178 172 176 176 170 166 166 166 159 151 152 144 141 150 139 127 123 114 115 128 122 118 117 107 106 111 109 110 116 129 135 131 121 112 103 90 82 78 74 76 80 78 76 72 68 66 67 67 67 68 70 71 73 74 75 74 73 73 70 65 59 55 51 49 47 45 44
198 204 200 205 208 212 216 201 196 197 189 190 196 193 196 193 188 186 182 177 179 181 177 174 174 173 166 155 153 156 155 149 137 130 130 125 123 128 123 121 120 116 113 112 114 115 118 132 134 127 117 104 97 98 94 88 85 87 91 86 79 73 70 68 68 67 65 66 68 69 71 71 72 71 68 66 64 61 56 53 51 49 48 47 47
195 195 197 210 210 208 211 203 202 201 190 189 198 198 196 194 192 189 187 183 181 186 184 182 183 181 184 171 158 179 171 155 144 137 132 130 130 127 119 115 113 118 124 120 119 118 115 123 126 122 116 108 108 112 114 112 106 107 107 97 88 81 77 74 71 69 68 70 70 71 71 71 70 69 66 65 62 60 58 55 53 51 50 49 48
197 192 193 201 202 203 207 205 205 199 189 186 195 200 192 192 198 191 190 191 185 186 186 189 188 182 191 180 151 164 169 165 158 144 141 144 141 131 125 125 120 117 122 126 135 138 130 123 120 114 101 97 100 104 116 122 121 126 118 102 93 87 83 78 74 74 73 74 74 73 71 70 69 67 65 63 61 59 58 56 55 52 50 50 48
195 193 192 196 197 201 204 203 201 195 190 186 192 200 192 196 203 190 189 196 190 189 187 190 191 184 191 180 157 159 166 171 168 153 153 153 145 141 147 151 139 126 121 125 141 143 126 114 113 114 109 107 105 106 120 126 127 128 114 102 96 90 84 79 77 77 77 77 75 74 73 71 69 68 66 63 61 60 58 57 55 53 50 48 47
187 188 189 192 194 198 198 197 195 193 193 190 193 198 194 200 204 190 189 195 193 194 188 186 193 186 186 183 172 168 172 177 176 167 167 159 152 155 157 155 149 148 147 140 146 145 130 123 119 114 117 118 116 120 130 128 126 123 112 104 97 90 85 81 80 79 79 79 78 77 75 73 71 68 66 64 61 57 55 53 51 49 47 45 43
185 185 185 188 191 195 198 196 194 192 191 190 196 198 194 201 204 197 197 196 197 201 191 187 195 186 181 184 176 172 176 181 178 177 181 170 161 163 160 152 148 156 162 149 145 145 134 123 116 113 112 111 118 134 136 129 124 120 112 104 96 90 85 81 80 80 81 80 79 78 74 71 69 66 64 60 58 54 51 49 46 44 42 41 40
182 184 185 187 188 191 196 196 196 196 192 189 196 200 197 204 207 203 202 198 198 205 198 195 198 191 189 187 180 182 184 185 185 183 183 170 158 161 163 156 150 152 153 146 140 139 134 125 126 127 119 118 139 148 134 128 126 119 112 104 97 90 85 84 83 81 80 78 75 74 70 68 65 61 60 57 54 52 49 48 45 43 42 41 40
179 184 188 188 188 191 191 190 195 199 196 193 195 200 200 205 208 205 204 200 201 207 202 200 201 196 195 195 192 194 190 190 194 187 179 168 158 161 164 157 151 150 152 150 145 145 140 134 134 130 125 135 155 149 134 132 129 120 112 105 97 92 87 87 86 83 80 76 73 71 68 66 64 61 59 57 56 54 52 50 49 48 47 45 45
180 184 189 189 190 195 194 189 192 196 200 202 199 199 202 204 205 206 206 202 205 211 204 203 208 202 197 199 200 201 196 196 197 188 181 172 162 162 164 158 149 147 152 153 148 147 142 137 138 135 132 136 149 151 143 139 133 122 114 106 98 95 95 93 89 86 83 80 76 73 70 67 64 62 60 59 57 55 53 51 49 49 49 48 48
182 184 189 190 189 195 197 195 195 194 199 208 205 205 208 206 205 207 209 204 206 213 205 202 211 209 206 206 205 203 205 203 191 181 179 170 162 164 164 157 150 148 152 154 151 148 144 143 142 138 136 139 156 164 151 143 137 125 115 108 104 103 103 101 96 91 89 88 83 76 71 66 62 59 56 54 53 51 51 49 48 47 47 47 47
182 186 190 190 189 193 196 197 200 199 200 207 209 211 212 210 206 204 207 206 204 207 203 201 206 207 208 207 200 202 208 201 186 179 177 168 163 169 166 159 157 156 154 155 155 150 147 147 144 146 154 160 174 176 157 151 141 126 117 109 112 116 114 110 106 103 98 92 86 78 69 63 58 53 50 47 45 44 43 43 43 42 41 42 42
180 184 185 187 188 187 191 197 200 202 204 207 210 211 211 212 210 203 201 204 205 205 203 206 209 205 203 201 199 206 204 190 186 186 180 173 169 170 167 162 161 159 158 158 156 150 150 151 148 154 166 170 176 175 161 156 143 131 130 124 125 128 126 124 119 113 107 93 80 71 63 58 53 47 43 40 37 36 33 33 34 33 32 31 32
178 177 178 184 184 181 186 196 200 201 205 208 209 211 211 211 211 207 202 202 208 208 201 204 216 216 208 202 202 204 193 181 185 190 184 178 174 171 170 172 168 162 163 163 154 151 157 158 155 160 167 173 179 179 165 160 156 150 146 141 147 150 146 141 132 121 110 93 71 54 47 45 44 40 34 31 28 26 24 22 23 24 23 21 20
178 176 181 188 188 185 188 194 195 197 205 212 209 207 210 209 209 210 207 206 208 209 204 205 216 219 211 205 200 194 188 183 182 184 186 182 175 173 174 180 179 170 169 166 155 155 163 164 164 166 169 179 189 181 169 173 165 150 167 193 187 173 177 177 165 150 130 100 59 35 24 21 26 27 22 19 16 15 14 13 13 14 15 14 13
185 185 189 193 191 189 191 193 194 197 204 210 207 204 203 203 205 208 211 210 206 208 210 210 213 214 209 201 192 188 189 188 183 181 186 182 176 176 178 184 184 175 174 172 159 158 167 168 167 169 174 182 187 174 170 192 207 157 175 216 229 197 201 208 205 212 218 219 345 353 352 353 359 3 4 3 2 2 3 3 4 5 6 7 7
192 190 190 189 187 187 188 192 199 201 203 205 206 207 205 206 206 203 211 216 206 203 208 208 208 210 207 198 189 189 188 187 187 189 189 182 175 176 180 185 182 173 177 176 161 155 165 170 166 170 177 179 182 176 173 197 227 188 183 214 233 219 219 219 215 225 243 263 294 310 320 331 337 342 346 347 347 348 350 352 353 355 357 359 0
186 181 178 180 182 184 187 194 202 205 207 209 210 209 206 211 210 202 209 215 205 202 206 205 205 208 206 201 195 192 188 190 194 193 189 181 174 177 184 191 183 175 181 179 163 156 163 171 170 174 180 181 183 184 182 198 221 205 191 212 233 232 228 232 229 229 250 280 296 304 309 317 324 329 332 334 335 336 338 341 343 345 348 350 352
173 168 169 176 178 183 188 193 201 208 211 213 216 214 207 210 211 205 208 208 204 207 210 207 205 203 202 201 199 195 192 198 197 188 184 181 177 179 185 189 180 179 189 182 160 157 164 175 180 180 183 187 191 192 194 205 220 218 201 210 229 241 243 250 248 254 289 304 302 306 309 312 317 321 323 325 326 327 329 331 333 336 339 341 344
164 163 171 176 176 181 188 191 199 207 207 208 214 214 209 209 208 205 205 204 202 206 212 212 206 202 201 198 200 200 196 198 192 181 181 183 182 184 186 184 174 179 199 194 160 161 171 180 187 188 188 193 198 199 202 210 221 229 216 211 220 234 242 245 243 256 280 296 303 306 306 308 311 313 314 317 318 319 321 322 324 327 330 333 336
160 167 175 175 175 180 184 187 194 200 203 208 210 207 209 209 205 205 206 203 201 202 205 208 202 205 208 196 196 203 198 193 187 180 182 186 188 188 185 181 173 179 202 210 166 168 176 181 190 197 196 197 202 206 206 209 216 222 222 219 220 225 233 240 241 245 260 276 290 299 303 305 308 309 311 313 314 315 316 317 319 320 323 326 330
164 170 173 172 176 179 181 185 190 194 200 205 202 199 207 207 201 206 206 198 199 196 190 192 195 206 210 196 192 198 196 194 188 181 183 189 190 188 186 184 179 181 194 202 180 179 183 185 192 202 203 200 203 212 211 210 213 216 220 225 227 230 233 241 247 247 256 271 285 294 299 302 304 305 307 308 309 311 312 314 314 315 317 320 323
167 168 171 173 176 181 183 182 186 195 198 196 193 193 197 193 188 196 197 192 196 190 179 184 192 195 198 193 193 193 193 196 191 181 184 190 189 189 190 190 186 184 191 199 197 200 205 202 200 202 206 207 208 213 214 216 218 218 222 227 233 238 238 241 252 258 263 270 279 288 295 298 298 300 303 304 304 307 309 310 310 311 312 314 318
168 168 172 174 176 181 182 179 185 197 197 196 199 196 191 187 180 179 183 185 190 186 180 185 190 187 187 189 192 192 195 201 195 185 187 192 192 194 193 196 199 192 191 199 206 209 215 219 216 211 209 211 215 217 218 222 224 224 229 233 236 239 238 238 246 257 266 272 277 282 286 292 294 295 297 298 298 302 306 306 306 305 307 310 312
168 170 171 174 176 178 179 180 184 189 194 199 200 193 190 193 190 185 184 183 183 182 181 188 193 194 193 188 187 192 198 202 196 192 195 196 198 202 199 202 210 202 192 200 211 215 216 218 224 225 219 216 218 221 225 227 229 231 233 238 243 242 240 241 241 243 253 269 280 283 283 288 291 291 294 295 296 300 303 303 302 302 303 305 307
167 169 170 172 172 173 178 179 176 185 199 204 198 188 183 183 188 199 200 190 190 190 186 189 194 195 197 194 193 198 202 202 197 196 201 201 200 206 208 210 217 214 205 207 214 220 222 221 224 226 226 224 222 224 229 228 231 237 236 240 247 249 250 251 246 240 241 257 274 280 284 291 296 295 295 294 294 296 297 296 296 298 301 302 302
164 166 167 166 168 172 173 168 173 192 202 203 198 191 185 178 176 191 208 202 200 205 205 205 206 206 207 208 211 213 211 208 205 203 208 209 204 205 211 215 216 218 220 222 223 226 228 228 228 227 228 230 228 229 230 229 234 239 237 240 247 250 252 253 250 250 247 248 255 258 269 286 293 294 297 298 296 298 298 294 292 295 300 299 298
161 162 161 160 160 157 158 171 191 202 204 202 200 196 191 183 174 175 189 204 205 209 215 217 220 223 220 220 230 233 228 222 218 214 216 218 214 210 212 216 216 216 220 225 229 234 236 236 235 233 232 235 236 236 235 236 239 240 240 244 249 249 251 251 252 256 254 250 252 250 253 268 276 281 289 291 289 293 296 293 291 294 298 296 295
154 156 157 157 154 158 174 193 207 208 204 205 207 205 200 196 189 179 175 200 212 211 217 218 221 227 223 220 231 240 238 232 228 225 222 223 220 214 214 217 219 218 220 224 226 231 238 241 242 243 242 244 244 241 241 243 245 247 247 247 248 250 251 251 253 258 260 259 261 259 257 260 262 267 273 271 269 278 284 284 287 293 298 296 294
154 154 158 158 161 175 194 206 207 197 196 200 203 206 204 204 204 193 182 204 218 213 217 217 219 223 217 212 215 223 233 233 229 226 228 231 230 226 224 226 229 231 232 231 229 229 233 238 243 248 251 252 253 253 252 250 250 253 253 250 249 251 253 254 255 259 263 263 263 263 262 262 255 257 267 270 263 263 270 275 280 286 292 294 294
166 164 166 169 177 193 201 199 196 193 190 186 185 191 194 197 201 192 180 193 211 209 210 211 214 217 208 205 208 210 223 232 225 218 221 232 242 244 243 242 244 246 245 241 237 237 238 238 240 246 249 251 256 258 256 255 253 251 250 250 252 254 255 256 256 255 255 258 262 264 262 261 256 253 263 268 259 253 264 272 274 278 285 291 292
180 180 181 187 201 213 204 198 200 199 192 186 178 177 179 182 188 186 183 190 200 204 209 206 207 212 210 211 214 216 230 232 224 220 220 222 235 249 254 254 254 255 254 252 249 248 248 247 248 250 249 249 252 252 252 256 255 248 246 250 254 253 253 255 257 258 258 260 266 268 264 262 261 256 257 262 258 256 263 268 270 274 283 289 289
185 190 191 202 219 220 212 208 207 203 200 197 189 184 184 180 179 188 199 203 198 202 212 208 201 207 215 217 216 223 233 233 228 231 234 235 240 249 255 259 261 261 260 262 264 263 262 260 257 257 256 256 256 254 252 251 250 250 254 256 254 253 254 255 257 259 258 260 265 267 265 264 262 258 256 257 258 258 261 265 267 273 283 288 289
200 205 202 214 225 222 216 212 206 204 206 206 200 198 197 192 186 184 197 213 209 209 219 216 205 214 224 222 218 222 231 235 237 242 248 251 253 255 258 260 260 261 262 265 269 271 269 265 261 258 259 261 263 262 259 254 251 253 257 257 256 256 256 257 259 258 257 258 258 257 259 265 268 265 259 254 251 249 252 259 265 271 279 285 290
225 223 214 215 221 220 217 214 210 209 209 207 206 205 204 206 205 194 190 224 228 220 234 239 229 237 246 242 235 236 240 245 248 251 254 255 255 256 259 260 261 264 263 259 259 260 261 265 266 261 258 260 263 264 264 262 260 259 258 259 260 259 257 258 260 262 263 264 261 256 258 269 276 272 256 244 243 240 242 253 264 271 275 279 285
212 208 204 204 206 209 211 211 209 209 206 205 207 210 211 216 220 210 196 199 222 216 223 243 249 262 267 261 251 250 254 255 257 259 258 258 259 258 260 262 263 264 262 260 261 262 263 266 268 265 262 262 262 263 262 262 261 261 260 261 261 258 258 261 262 261 263 265 265 264 264 269 273 266 241 232 239 243 247 254 262 269 271 272 278